FW6684 Weather Reports


Display with metric or nautical units.
time (UTC)temp
F
wind
direction
speed
MPH
gust
MPH
rain 1hr
in
rain 24hr
in
rain mn
in
humidity
%
barometer
mb
20260506173111 55 0 0.0 0.0 0.00 0.00 0.00 61 1015.9
20260506172543 55 0 0.0 0.0 0.00 0.00 0.00 61 1015.9
20260506172043 56 0 0.0 0.0 0.00 0.00 0.00 62 1015.7
20260506171552 55 0 0.0 0.0 0.00 0.00 0.00 64 1015.7
20260506171046 55 0 0.0 0.0 0.00 0.00 0.00 63 1015.7
20260506170546 55 0 0.0 0.0 0.00 0.00 0.00 65 1015.8
20260506170051 55 0 0.0 0.0 0.00 0.00 0.00 62 1015.8
20260506165544 55 0 0.0 0.0 0.00 0.00 0.00 62 1015.8
20260506165044 55 0 0.0 0.0 0.00 0.00 0.00 62 1015.7
20260506164549 55 0 0.0 0.0 0.00 0.00 0.00 61 1015.8
20260506164043 55 0 0.0 0.0 0.00 0.00 0.00 61 1015.8
20260506163546 55 0 0.0 0.0 0.00 0.00 0.00 61 1015.7
20260506163054 55 0 0.0 0.0 0.00 0.00 0.00 60 1015.9
20260506162543 55 0 0.0 0.0 0.00 0.00 0.00 60 1015.8
20260506162043 55 0 0.0 0.0 0.00 0.00 0.00 62 1015.8
20260506161550 55 0 0.0 0.0 0.00 0.00 0.00 62 1015.8
20260506161046 55 0 0.0 0.0 0.00 0.00 0.00 63 1015.8
20260506160543 55 0 0.0 0.0 0.00 0.00 0.00 63 1015.8
20260506160049 54 0 0.0 0.0 0.00 0.00 0.00 63 1015.9
20260506155543 54 0 0.0 0.0 0.00 0.00 0.00 64 1015.9
20260506155044 54 0 0.0 0.0 0.00 0.00 0.00 66 1016.0
20260506154600 54 0 0.0 0.0 0.00 0.00 0.00 66 1016.0
20260506154044 54 0 0.0 0.0 0.00 0.00 0.00 66 1015.8
20260506153544 54 0 0.0 0.0 0.00 0.00 0.00 66 1016.0
20260506153047 54 0 0.0 0.0 0.00 0.00 0.00 66 1016.0
20260506152543 54 0 0.0 0.0 0.00 0.00 0.00 67 1016.0
20260506152044 53 0 0.0 0.0 0.00 0.00 0.00 67 1016.1
20260506151551 53 0 0.0 0.0 0.00 0.00 0.00 67 1016.1
20260506151043 53 0 0.0 0.0 0.00 0.00 0.00 67 1016.1
20260506150542 53 0 0.0 0.0 0.00 0.00 0.00 66 1016.0
20260506150059 53 0 0.0 0.0 0.00 0.00 0.00 66 1016.1
20260506145546 53 0 0.0 0.0 0.00 0.00 0.00 66 1016.1
20260506145047 53 0 0.0 0.0 0.00 0.00 0.00 67 1016.2
20260506144603 53 0 0.0 0.0 0.00 0.00 0.00 66 1016.3
20260506144043 53 0 0.0 0.0 0.00 0.00 0.00 66 1016.2
20260506143547 53 0 0.0 0.0 0.00 0.00 0.00 68 1016.2
20260506143053 53 0 0.0 0.0 0.00 0.00 0.00 68 1016.2
20260506142544 53 0 0.0 0.0 0.00 0.00 0.00 68 1016.2
20260506142043 53 0 0.0 0.0 0.00 0.00 0.00 70 1016.1
20260506141547 53 0 0.0 0.0 0.00 0.00 0.00 69 1016.2
20260506141046 53 0 0.0 0.0 0.00 0.00 0.00 69 1016.2
20260506140543 53 0 0.0 0.0 0.00 0.00 0.00 68 1016.3
20260506140106 53 0 0.0 0.0 0.00 0.00 0.00 68 1016.3
20260506135543 53 0 0.0 0.0 0.00 0.00 0.00 68 1016.3
20260506135043 53 0 0.0 0.0 0.00 0.00 0.00 68 1016.4
20260506134553 53 0 0.0 0.0 0.00 0.00 0.00 68 1016.4
20260506134042 53 0 0.0 0.0 0.00 0.00 0.00 69 1016.2
20260506133547 53 0 0.0 0.0 0.00 0.00 0.00 68 1016.3
20260506133102 53 0 0.0 0.0 0.00 0.00 0.00 68 1016.3
20260506132545 53 0 0.0 0.0 0.00 0.00 0.00 67 1016.4
20260506132043 53 0 0.0 0.0 0.00 0.00 0.00 68 1016.2
20260506131548 53 0 0.0 0.0 0.00 0.00 0.00 68 1016.3
20260506131046 53 0 0.0 0.0 0.00 0.00 0.00 69 1016.3
20260506130543 53 0 0.0 0.0 0.00 0.00 0.00 69 1016.4
20260506130136 52 0 0.0 0.0 0.00 0.00 0.00 69 1016.4
20260506125543 53 0 0.0 0.0 0.00 0.00 0.00 70 1016.5
20260506125043 52 0 0.0 0.0 0.00 0.00 0.00 69 1016.4
20260506124554 53 0 0.0 0.0 0.00 0.00 0.00 70 1016.4
20260506124043 53 0 0.0 0.0 0.00 0.00 0.00 70 1016.4
20260506123543 53 0 0.0 0.0 0.00 0.00 0.00 69 1016.4
20260506123052 52 0 0.0 0.0 0.00 0.00 0.00 68 1016.4
20260506122543 52 0 0.0 0.0 0.00 0.00 0.00 67 1016.4
20260506122043 53 0 0.0 0.0 0.00 0.00 0.00 68 1016.3
20260506121555 53 0 0.0 0.0 0.00 0.00 0.00 67 1016.3
20260506121043 53 0 0.0 0.0 0.00 0.00 0.00 68 1016.3
20260506120544 53 0 0.0 0.0 0.00 0.00 0.00 67 1016.3
20260506120100 53 0 0.0 0.0 0.00 0.00 0.00 66 1016.3
20260506115544 53 0 0.0 0.0 0.00 0.00 0.00 66 1016.4
20260506115043 53 0 0.0 0.0 0.00 0.00 0.00 66 1016.1
20260506114550 52 0 0.0 0.0 0.00 0.00 0.00 66 1016.2
20260506114043 52 0 0.0 0.0 0.00 0.00 0.00 67 1016.4
20260506113543 53 0 0.0 0.0 0.00 0.00 0.00 66 1016.3
20260506113054 53 0 0.0 0.0 0.00 0.00 0.00 65 1016.3
20260506112542 53 0 0.0 0.0 0.00 0.00 0.00 66 1016.3
20260506112042 53 0 0.0 0.0 0.00 0.00 0.00 64 1016.3
20260506111553 53 0 0.0 0.0 0.00 0.00 0.00 64 1016.3
20260506111043 53 0 0.0 0.0 0.00 0.00 0.00 65 1016.3
20260506110543 52 0 0.0 0.0 0.00 0.00 0.00 66 1016.3
20260506110050 52 0 0.0 0.0 0.00 0.00 0.00 65 1016.3
20260506105544 52 0 0.0 0.0 0.00 0.00 0.00 65 1016.2
20260506105044 52 0 0.0 0.0 0.00 0.00 0.00 67 1016.3
20260506104559 52 0 0.0 0.0 0.00 0.00 0.00 68 1016.3
20260506104043 52 0 0.0 0.0 0.00 0.00 0.00 66 1016.3
20260506103543 52 0 0.0 0.0 0.00 0.00 0.00 67 1016.3
20260506103054 52 0 0.0 0.0 0.00 0.00 0.00 67 1016.2
20260506102544 52 0 0.0 0.0 0.00 0.00 0.00 68 1016.3
20260506102046 52 0 0.0 0.0 0.00 0.00 0.00 67 1016.3
20260506101553 52 0 0.0 0.0 0.00 0.00 0.00 66 1016.2
20260506101043 52 0 0.0 0.0 0.00 0.00 0.00 65 1016.3
20260506100543 52 0 0.0 0.0 0.00 0.00 0.00 65 1016.2
20260506100107 52 0 0.0 0.0 0.00 0.00 0.00 67 1016.4
20260506095551 52 0 0.0 0.0 0.00 0.00 0.00 66 1016.3
20260506095043 52 0 0.0 0.0 0.00 0.00 0.00 67 1016.2
20260506094600 51 0 0.0 0.0 0.00 0.00 0.00 66 1016.3
20260506094042 51 0 0.0 0.0 0.00 0.00 0.00 67 1016.2
20260506093542 51 0 0.0 0.0 0.00 0.00 0.00 70 1016.2
20260506093052 50 0 0.0 0.0 0.00 0.00 0.00 73 1016.0
20260506092542 50 0 0.0 0.0 0.00 0.00 0.00 74 1016.2
20260506092042 49 0 0.0 0.0 0.00 0.00 0.00 74 1016.1
20260506091551 49 0 0.0 0.0 0.00 0.00 0.00 74 1016.2
20260506091043 49 0 0.0 0.0 0.00 0.00 0.00 74 1016.1
20260506090542 49 0 0.0 0.0 0.00 0.00 0.00 74 1016.3
20260506090051 48 0 0.0 0.0 0.00 0.00 0.00 74 1016.4
20260506085543 48 0 0.0 0.0 0.00 0.00 0.00 76 1016.4
20260506085046 48 0 0.0 0.0 0.00 0.00 0.00 76 1016.4
20260506084553 48 0 0.0 0.0 0.00 0.00 0.00 76 1016.4
20260506084043 48 0 0.0 0.0 0.00 0.00 0.00 78 1016.4
20260506083543 48 0 0.0 0.0 0.00 0.00 0.00 78 1016.5
20260506083055 48 0 0.0 0.0 0.00 0.00 0.00 78 1016.4
20260506082542 48 0 0.0 0.0 0.00 0.00 0.00 78 1016.4
20260506082042 48 0 0.0 0.0 0.00 0.00 0.00 78 1016.4
20260506081602 48 0 0.0 0.0 0.00 0.00 0.00 79 1016.3
20260506081044 47 0 0.0 0.0 0.00 0.00 0.00 79 1016.3
20260506080543 47 0 0.0 0.0 0.00 0.00 0.00 79 1016.4
20260506073051 46 0 0.0 0.0 0.00 0.00 0.00 80 1016.3
20260506072546 46 0 0.0 0.0 0.00 0.00 0.00 80 1016.3
20260506072043 47 0 0.0 0.0 0.00 0.00 0.00 80 1016.4
20260506071555 47 0 0.0 0.0 0.00 0.00 0.00 79 1016.3
20260506071043 47 0 0.0 0.0 0.00 0.00 0.00 79 1016.3
20260506070543 47 0 0.0 0.0 0.00 0.00 0.00 79 1016.2
20260506062044 46 0 0.0 0.0 0.00 0.00 0.00 82 1016.1
20260506061553 46 0 0.0 0.0 0.00 0.00 0.00 82 1016.1
20260506061044 46 0 0.0 0.0 0.00 0.00 0.00 82 1016.2
20260506060545 46 0 0.0 0.0 0.00 0.00 0.00 82 1016.1
20260506051044 46 0 0.0 0.0 0.00 0.00 0.00 83 1015.9
20260506050544 46 0 0.0 0.0 0.00 0.00 0.00 83 1015.8
20260506045044 46 0 0.0 0.0 0.00 0.00 0.00 82 1015.9
20260506044555 46 0 0.0 0.0 0.00 0.00 0.00 82 1015.9
20260506044044 46 0 0.0 0.0 0.00 0.00 0.00 82 1015.8
20260506043544 46 0 0.0 0.0 0.00 0.00 0.00 82 1015.9
20260506043049 46 0 0.0 0.0 0.00 0.00 0.00 82 1015.9
20260506042544 46 0 0.0 0.0 0.00 0.00 0.00 82 1015.8
20260506042044 47 0 0.0 0.0 0.00 0.00 0.00 82 1015.9
20260506041553 47 0 0.0 0.0 0.00 0.00 0.00 82 1015.9
20260506041043 47 0 0.0 0.0 0.00 0.00 0.00 82 1016.0
20260506040544 47 0 0.0 0.0 0.00 0.00 0.00 82 1015.9
20260506040051 47 0 0.0 0.0 0.00 0.00 0.00 82 1016.0
20260506035544 47 0 0.0 0.0 0.00 0.00 0.00 82 1016.0
20260506035045 47 0 0.0 0.0 0.00 0.00 0.00 82 1015.9
20260506034612 47 0 0.0 0.0 0.00 0.00 0.00 82 1015.9
20260506034045 47 0 0.0 0.0 0.00 0.00 0.00 82 1015.8
20260506033544 47 0 0.0 0.0 0.00 0.00 0.00 82 1015.9
20260506033054 47 0 0.0 0.0 0.00 0.00 0.00 82 1015.9
20260506032544 47 0 0.0 0.0 0.00 0.00 0.00 82 1015.8
20260506032044 47 0 0.0 0.0 0.00 0.00 0.00 81 1015.9
20260506031556 47 0 0.0 0.0 0.00 0.00 0.00 82 1015.9
20260506031043 47 0 0.0 0.0 0.00 0.00 0.00 82 1015.9
20260506030543 47 0 0.0 0.0 0.00 0.00 0.00 82 1016.0
20260506030054 48 0 0.0 0.0 0.00 0.00 0.00 82 1015.9
20260506025544 48 0 0.0 0.0 0.00 0.00 0.00 82 1016.0
20260506025044 48 0 0.0 0.0 0.00 0.00 0.00 82 1015.9
20260506024556 48 0 0.0 0.0 0.00 0.00 0.00 82 1015.8
20260506024044 48 0 0.0 0.0 0.00 0.00 0.00 82 1015.8
20260506023544 48 0 0.0 0.0 0.00 0.00 0.00 83 1015.8
20260506023057 48 0 0.0 0.0 0.00 0.00 0.00 83 1015.8
20260506022543 48 0 0.0 0.0 0.00 0.00 0.00 83 1015.8
20260506022044 48 0 0.0 0.0 0.00 0.00 0.00 83 1015.8
20260506021556 48 0 0.0 0.0 0.00 0.00 0.00 83 1015.9
20260506021044 48 0 0.0 0.0 0.00 0.00 0.00 82 1015.9
20260506020544 49 0 0.0 0.0 0.00 0.00 0.00 83 1016.0
20260506020056 49 0 0.0 0.0 0.00 0.00 0.00 82 1015.9
20260506015544 49 0 0.0 0.0 0.00 0.00 0.00 82 1016.1
20260506015048 49 0 0.0 0.0 0.00 0.00 0.00 82 1016.0
20260506014551 49 0 0.0 0.0 0.00 0.00 0.00 83 1015.8
20260506014044 49 0 0.0 0.0 0.00 0.00 0.00 83 1015.8
20260506013547 49 0 0.0 0.0 0.00 0.00 0.00 83 1015.9
20260506013108 49 0 0.0 0.0 0.00 0.00 0.00 83 1015.9
20260506012544 49 0 0.0 0.0 0.00 0.00 0.00 83 1015.9
20260506012044 49 0 0.0 0.0 0.00 0.00 0.00 83 1015.9
20260506011559 49 0 0.0 0.0 0.00 0.00 0.00 83 1016.0
20260506011043 49 0 0.0 0.0 0.00 0.00 0.00 83 1015.9
20260506010544 49 0 0.0 0.0 0.00 0.00 0.00 83 1016.1
20260506010119 49 0 0.0 0.0 0.00 0.00 0.00 83 1015.9
20260506005544 50 0 0.0 0.0 0.00 0.00 0.00 83 1016.1
20260506005044 50 0 0.0 0.0 0.00 0.00 0.00 83 1016.0
20260506004556 50 0 0.0 0.0 0.00 0.00 0.00 83 1016.1
20260506004044 50 0 0.0 0.0 0.00 0.00 0.00 83 1016.0
20260506003544 50 0 0.0 0.0 0.00 0.00 0.00 82 1016.0
20260506003117 50 0 0.0 0.0 0.00 0.00 0.00 82 1016.0
20260506002544 50 0 0.0 0.0 0.00 0.00 0.00 82 1016.1
20260506002044 50 0 0.0 0.0 0.00 0.00 0.00 82 1016.0
20260506001602 50 0 0.0 0.0 0.00 0.00 0.00 81 1016.1
20260506001044 50 0 0.0 0.0 0.00 0.00 0.00 81 1016.0
20260506000543 50 0 0.0 0.0 0.00 0.00 0.00 81 1016.0
20260506000058 50 0 0.0 0.0 0.00 0.00 0.00 81 1016.1
20260505235544 50 0 0.0 0.0 0.00 0.00 0.00 81 1016.0
20260505235044 50 0 0.0 0.0 0.00 0.00 0.00 81 1016.0
20260505234552 50 0 0.0 0.0 0.00 0.00 0.00 80 1016.0
20260505234047 51 0 0.0 0.0 0.00 0.00 0.00 80 1016.0
20260505233547 51 0 0.0 0.0 0.00 0.00 0.00 80 1015.9
20260505233106 51 0 0.0 0.0 0.00 0.00 0.00 80 1016.0
20260505232545 51 0 0.0 0.0 0.00 0.00 0.00 79 1015.9
20260505232044 51 0 0.0 0.0 0.00 0.00 0.00 79 1016.0
20260505231554 51 0 0.0 0.0 0.00 0.00 0.00 79 1016.0
20260505231044 51 0 0.0 0.0 0.00 0.00 0.00 78 1016.0
20260505230544 51 0 0.0 0.0 0.00 0.00 0.00 78 1016.0
20260505230058 51 0 0.0 0.0 0.00 0.00 0.00 78 1016.1
20260505225546 51 0 0.0 0.0 0.00 0.00 0.00 78 1016.1
20260505225058 52 0 0.0 0.0 0.00 0.00 0.00 78 1016.1
20260505224558 52 0 0.0 0.0 0.00 0.00 0.00 78 1016.0
20260505224049 52 0 0.0 0.0 0.00 0.00 0.00 78 1016.0
20260505223544 52 0 0.0 0.0 0.00 0.00 0.00 78 1016.1
20260505223054 52 0 0.0 0.0 0.00 0.00 0.00 78 1016.2
20260505222544 52 0 0.0 0.0 0.00 0.00 0.00 78 1016.1
20260505222044 52 0 0.0 0.0 0.00 0.00 0.00 77 1016.0
20260505221551 52 0 0.0 0.0 0.00 0.00 0.00 77 1016.1
20260505221043 52 0 0.0 0.0 0.00 0.00 0.00 76 1016.0
20260505220544 53 0 0.0 0.0 0.00 0.00 0.00 76 1016.0
20260505220055 53 0 0.0 0.0 0.00 0.00 0.00 76 1016.0
20260505215546 53 0 0.0 0.0 0.00 0.00 0.00 77 1015.9
20260505215044 53 0 0.0 0.0 0.00 0.00 0.00 76 1015.8
20260505214610 53 0 0.0 0.0 0.00 0.00 0.00 75 1015.7
20260505214043 53 0 0.0 0.0 0.00 0.00 0.00 75 1015.9
20260505213543 53 0 0.0 0.0 0.00 0.00 0.00 75 1015.9
20260505213057 54 0 0.0 0.0 0.00 0.00 0.00 75 1015.6
20260505212544 54 0 0.0 0.0 0.00 0.00 0.00 74 1015.6
20260505212044 54 0 0.0 0.0 0.00 0.00 0.00 74 1015.5
20260505211556 54 0 0.0 0.0 0.00 0.00 0.00 73 1015.5
20260505211045 54 0 0.0 0.0 0.00 0.00 0.00 72 1015.6
20260505210543 55 0 0.0 0.0 0.00 0.00 0.00 73 1015.6
20260505210054 55 0 0.0 0.0 0.00 0.00 0.00 73 1015.4
20260505205544 55 0 0.0 0.0 0.00 0.00 0.00 72 1015.5
20260505205045 55 0 0.0 0.0 0.00 0.00 0.00 71 1015.5
20260505204601 55 0 0.0 0.0 0.00 0.00 0.00 71 1015.3
20260505204043 55 0 0.0 0.0 0.00 0.00 0.00 72 1015.3
20260505203543 55 0 0.0 0.0 0.00 0.00 0.00 71 1015.3
20260505203055 55 0 0.0 0.0 0.00 0.00 0.00 71 1015.3
20260505202543 55 0 0.0 0.0 0.00 0.00 0.00 71 1015.2
20260505202047 55 0 0.0 0.0 0.00 0.00 0.00 72 1015.2
20260505201558 55 0 0.0 0.0 0.00 0.00 0.00 73 1015.2
20260505201044 55 0 0.0 0.0 0.00 0.00 0.00 73 1015.2
20260505200544 56 0 0.0 0.0 0.00 0.00 0.00 74 1015.2
20260505200054 56 0 0.0 0.0 0.00 0.00 0.00 74 1015.2
20260505195546 56 0 0.0 0.0 0.00 0.00 0.00 74 1015.2
20260505195044 56 0 0.0 0.0 0.00 0.00 0.00 74 1015.1
20260505194547 56 0 0.0 0.0 0.00 0.00 0.00 73 1015.0
20260505194044 56 0 0.0 1.0 0.00 0.00 0.00 73 1014.9
20260505193543 56 0 0.0 1.0 0.00 0.00 0.00 72 1014.9
20260505193053 57 0 0.0 0.0 0.00 0.00 0.00 72 1014.8
20260505192543 57 0 0.0 0.0 0.00 0.00 0.00 72 1014.7
20260505192043 57 0 0.0 0.0 0.00 0.00 0.00 72 1014.6
20260505191603 57 0 0.0 0.0 0.00 0.00 0.00 71 1014.6
20260505191043 57 0 0.0 0.0 0.00 0.00 0.00 71 1014.6
20260505190548 57 0 0.0 0.0 0.00 0.00 0.00 70 1014.5
20260505190058 57 0 0.0 0.0 0.00 0.00 0.00 70 1014.5
20260505185544 58 0 0.0 0.0 0.00 0.00 0.00 70 1014.5
20260505185043 58 0 0.0 0.0 0.00 0.00 0.00 70 1014.5
20260505184551 58 0 0.0 0.0 0.00 0.00 0.00 70 1014.4
20260505184044 58 0 0.0 0.0 0.00 0.00 0.00 70 1014.4
20260505183544 58 0 0.0 0.0 0.00 0.00 0.00 70 1014.4
20260505183124 58 0 0.0 0.0 0.00 0.00 0.00 70 1014.4
20260505182544 58 0 0.0 0.0 0.00 0.00 0.00 70 1014.4
20260505182044 58 0 0.0 0.0 0.00 0.00 0.00 70 1014.4
20260505181555 58 0 0.0 0.0 0.00 0.00 0.00 69 1014.4
20260505181044 58 0 0.0 0.0 0.00 0.00 0.00 70 1014.5
20260505180543 58 0 0.0 0.0 0.00 0.00 0.00 71 1014.4
20260505180056 58 0 0.0 0.0 0.00 0.00 0.00 71 1014.4
20260505175543 58 0 0.0 0.0 0.00 0.00 0.00 71 1014.3
20260505175044 58 0 0.0 0.0 0.00 0.00 0.00 70 1014.4
20260505174552 58 0 0.0 0.0 0.00 0.00 0.00 70 1014.3
20260505174044 58 0 0.0 0.0 0.00 0.00 0.00 70 1014.3
20260505173543 58 0 0.0 0.0 0.00 0.00 0.00 70 1014.4